Location: Utrecht
(52.0907°N, 5.1214°E)
Time: 08:55:00
(UTC+02:00)

MOZHAYETS 4 - Pass Details

Date: 04 July 2022
Orbit: 660 x 678 km, 98.2° (Epoch: 17 August)

Event Time Altitude Azimuth Distance (km) Brightness Sun altitude
Exits shadow 03:00:39 - 140° (SE) 2,986 10.8 -13.2°
Reaches altitude 10° 03:02:54 10° 133° (SE) 2,108 10.0 -13.1°
Maximum altitude 03:07:09 38° 65° (ENE) 1,026 9.1 -12.8°
Drops below altitude 10° 03:11:25 10° 358° (N) 2,112 11.5 -12.6°
Sets 03:13:45 0° 351° (N) 3,027 12.2 -12.5°
